Regional Weather Roundup
Issued by NWS

Home | Current Version | Previous Version | Graphics & Text | Print | Product List | Glossary On
Versions: 1 2 3 4 5 6 7 8 9 10 11 12 13 14 15 16 17 18 19 20 21 22 23 24 25 26 27 28 29 30 31 32 33 34 35 36 37 38 39 40 41 42 43 44 45 46 47 48 49 50
975
ASUS43 KMPX 060501
RWRMN
WEATHER ROUNDUP FOR MINNESOTA
NATIONAL WEATHER SERVICE TWIN CITIES/CHANHASSEN MN
1200 AM CDT FRI MAY 06 2016


NOTE: "FAIR" INDICATES FEW OR NO CLOUDS BELOW 12,000 FEET WITH NO
SIGNIFICANT WEATHER AND/OR OBSTRUCTIONS TO VISIBILITY. N/A MEANS
CURRENT SKY AND/OR WEATHER CONDITIONS ARE NOT AVAILABLE.

MNZ060>063-068>070-060600-
   Twin Cities Metro

CITY           SKY/WX    TMP DP  RH WIND       PRES   REMARKS
TWIN CITIES    CLEAR     68  41  37 SW8       29.88S
ST PAUL        CLEAR     57  45  64 SE3       29.88S
CRYSTAL        CLEAR     69  42  37 SW7       29.86S
BLAINE         CLEAR     66  43  42 SW6       29.86F
EDEN PRAIRIE   CLEAR     66  41  40 SW9       29.87F
SOUTH ST PAUL  CLEAR     58  45  61 CALM      29.88S
LAKE ELMO      FAIR      55  43  62 S7        29.88S
$$
MNZ001>005-007-008-013>017-022>024-027-028-060600-
   Northwest Minnesota

CITY           SKY/WX    TMP DP  RH WIND       PRES   REMARKS
BEMIDJI        CLEAR     70  39  32 SW9       29.78S
HALLOCK        CLEAR     66  30  26 SW9       29.67S
ROSEAU         PTCLDY    72  39  30 SW12      29.68F
WARROAD        CLOUDY    73  45  35 SW9       29.69S
THIEF RVR FALL PTCLDY    66  34  30 S12       29.74S
CROOKSTON      PTCLDY    66  37  34 SW10      29.73F
FOSSTON        CLEAR     59  37  44 S8        29.78S
DETROIT LAKES  CLEAR     70  39  32 SW10      29.82F
MOORHEAD       CLEAR     66  39  37 S8        29.79R
PARK RAPIDS    CLEAR     70  39  32 SW10      29.81S
MAHNOMEN       FAIR      64  40  42 S10       29.78S
$$
MNZ006-009>011-018-025>026-060600-
   North Central Minnesota

CITY           SKY/WX    TMP DP  RH WIND       PRES   REMARKS
BAUDETTE       CLEAR     67  39  35 SW5       29.69F
FLAG ISLAND    PTCLDY    70  37  30 SW13      29.64F
INTL FALLS     CLEAR     59  44  57 SW6       29.70S
WASKISH        CLEAR     72  39  30 SW7       29.73S
BIG FORK       CLEAR     63  41  45 SW6       29.75S
LONGVILLE      CLEAR     66  41  39 SW6       29.81S
GRAND RAPIDS   CLEAR     73  39  29 W7        29.80S
CRANE LAKE     CLEAR     50  46  87 CALM      29.73S
ORR            CLEAR     66  39  37 CALM      29.73R
COOK           PTCLDY    68  45  42 SW5       29.76S
WALKER         FAIR      73  38  28 SW13G21   29.79S
$$
MNZ012-019>021-037-060600-
   Northeast Minnesota

CITY           SKY/WX    TMP DP  RH WIND       PRES   REMARKS
DULUTH         PTCLDY    66  41  40 W12       29.79S
ELY            CLEAR     66  41  39 SW3       29.75S
HIBBING        CLEAR     55  43  63 SE3       29.77S
EVELETH        PTCLDY    64  41  42 SW6       29.78F
DULUTH HARBOR  CLEAR     66  45  45 SW13      29.76F
TWO HARBORS    CLEAR     55  46  71 CALM      29.76F
SILVER BAY     CLEAR     48  37  66 CALM      29.77S
GRAND MARAIS     N/A     45  37  73 NE3       29.78F
G MARAIS ARPRT CLEAR     48  34  57 E3        29.81F
$$
MNZ029>031-032-039>041-046>048-054>057-064-060600-
   West Central Minnesota

CITY           SKY/WX    TMP DP  RH WIND       PRES   REMARKS
FERGUS FALLS   CLEAR     64  43  45 S9        29.80S
WHEATON        CLEAR     66  45  45 S13       29.85S
MORRIS         CLEAR     61  45  55 S7        29.85F
ALEXANDRIA     CLEAR     65  41  41 SW10      29.88F
ELBOW LAKE     FAIR      60  43  53 S10       29.85F
WADENA         CLEAR     70  43  37 SW9       29.83F
GLENWOOD       CLEAR     59  45  58 SW8       29.89S
APPLETON       CLEAR     66  45  45 S7        29.87F
BENSON         CLEAR     63  43  48 SW8       29.88S
ORTONVILLE     CLEAR     61  43  51 S5        29.86F
MADISON        CLEAR     59  43  55 S6        29.88F
WILLMAR        FAIR      66  45  45 SW7       29.90F
$$
MNZ033>034-036-042>043-049>051-058-059-060600-
   Central Minnesota

CITY           SKY/WX    TMP DP  RH WIND       PRES   REMARKS
ST CLOUD       CLEAR     68  44  42 SW8       29.86S
SAUK CENTRE      N/A     63  44  50 SW9       29.88S
PAYNESVILLE    CLEAR     67  43  41 SW8       29.89F
AITKIN         CLEAR     72  36  26 SW8       29.80S
PINE RIVER     CLEAR     72  45  37 SW5       29.85S
BRAINERD       CLEAR     64  43  46 SW7       29.83F
STAPLES        CLEAR     70  37  30 SW13G18   29.83F
LONG PRAIRIE   FAIR      63  43  48 SW8       29.88S
LITTLE FALLS   CLEAR     66  39  37 SW7       29.86S
LITCHFIELD     CLEAR     68  43  40 SW5       29.90S
BUFFALO        CLEAR     65  43  44 SW5       29.88F
MAPLE LAKE     CLEAR     68  46  45 SW7       29.88F
HUTCHINSON     CLEAR     66  45  46 SW6       29.91S
$$
MNZ037-044-045-052-053-060600-
   East Central Minnesota

CITY           SKY/WX    TMP DP  RH WIND       PRES   REMARKS
PRINCETON      CLEAR     68  45  42 SW6       29.85F
MORA           CLEAR     61  41  48 CALM      29.85S
CAMBRIDGE      CLEAR     70  48  46 SW5       29.83F
RUSH CITY      MOCLDY    61  41  47 S3        29.84F
MOOSE LAKE     MOCLDY    59  41  51 SW3       29.79F
HINCKLEY       CLOUDY    55  43  62 CALM      29.83S
CLOQUET        CLEAR     66  37  34 SW7       29.79F
MCGREGOR       CLEAR     63  45  51 SW6       29.81S
$$
MNZ071>073-080-081-089-090-097-098-060600-
   Southwest Minnesota

CITY           SKY/WX    TMP DP  RH WIND       PRES   REMARKS
MONTEVIDEO     CLEAR     63  45  51 SW7       29.91S
GRANITE FALLS  CLEAR     59  44  56 S6        29.91S
CANBY          CLEAR     70  45  40 SW12G17   29.89F
MARSHALL       CLEAR     63  43  48 SW14      29.90F
REDWOOD FALLS  CLEAR     60  41  49 S9        29.91S
OLIVIA         CLEAR     55  37  50 SW8       29.90S
PIPESTONE      CLEAR     57  45  62 S9        29.94S
WINDOM         CLEAR     63  43  48 CALM      29.95R
WORTHINGTON    CLEAR     64  41  42 S17       29.95F
JACKSON        CLEAR     61  37  41 SW8       29.96F
TRACY          CLEAR     64  44  49 SW15      29.92S
SLAYTON        CLEAR     63  41  45 S14       29.94F
$$
MNZ065>067-074>077-082>085-091>093-060600-
   South Central Minnesota

CITY           SKY/WX    TMP DP  RH WIND       PRES   REMARKS
MANKATO        CLEAR     63  39  42 SW7       29.92F
ST JAMES       CLEAR     55  41  58 CALM      29.94S
FAIRMONT       PTCLDY    61  37  41 SW7       29.94F
GLENCOE        CLEAR     67  45  45 SW6       29.90S
FARIBAULT      CLEAR     63  43  48 S3        29.92S
OWATONNA       CLEAR     61  39  44 SW8       29.93S
WASECA         CLEAR     55  41  58 SW8       29.94S
ALBERT LEA     CLEAR     63  39  42 SW5       29.95S
$$
MNZ078>079-086>088-094>096-060600-
   Southeast Minnesota

CITY           SKY/WX    TMP DP  RH WIND       PRES   REMARKS
ROCHESTER      CLEAR     55  40  56 SW13      29.94F
RED WING       CLEAR     52  43  71 CALM      29.88F
STANTON        CLEAR     57  41  54 SW6       29.89S
DODGE CENTER   PTCLDY    55  39  54 SW8       29.93F
WINONA         CLEAR     54  48  82 CALM      29.92F
AUSTIN         CLEAR     55  37  50 S3        29.94S
PRESTON        CLEAR     57  35  44 SW10      29.94F
$$
ABBREVIATIONS USED IN REMARKS
   TC - TEMPERATURES IN CELSIUS
  WCI - WIND CHILL INDEX
   HX - HEAT INDEX
  VSB - VISIBILITY
$$




USA.gov is the U.S. government's official web portal to all federal, state and local government web resources and services.